Location: Lamy Ridge Observatory
(35.5010°N, 105.8759°W)
Time: 09:39:19
(UTC-06:00)

Envisat - Visible Passes

Search period start: 08 September 2024 00:00
Search period end: 18 September 2024 00:00
Orbit: 762 x 764 km, 98.3° (Epoch: 08 September)

Date Brightness Start Highest point End Pass type
(mag) Time Alt. Az. Time Alt. Az. Time Alt. Az.
08 Sep 3.1 04:17:28 10° N 04:21:53 67° N 04:21:53 67° N visible
09 Sep 4.4 03:40:18 10° NNE 03:43:54 35° ENE 03:43:54 35° ENE visible
09 Sep 4.3 05:20:05 10° NNW 05:23:41 20° WNW 05:24:03 20° WNW visible
10 Sep 5.6 03:04:08 10° NE 03:05:55 15° ENE 03:05:55 15° ENE visible
10 Sep 3.4 04:41:44 10° N 04:46:04 44° NW 04:46:04 44° NW visible
11 Sep 3.6 04:04:08 10° NNE 04:08:04 53° NE 04:08:04 53° NE visible
11 Sep 4.9 05:45:50 10° NW 05:47:28 12° WNW 05:48:13 11° WNW visible
12 Sep 4.9 03:27:13 10° NE 03:30:05 25° ENE 03:30:05 25° ENE visible
12 Sep 4.0 05:06:17 10° NNW 05:10:14 26° WNW 05:10:14 26° WNW visible
13 Sep 5.9 02:51:54 10° ENE 02:52:06 10° ENE 02:52:06 10° ENE visible
13 Sep 3.4 04:28:13 10° N 04:32:14 51° NNW 04:32:14 51° NNW visible
14 Sep 4.2 03:50:51 10° NNE 03:54:15 39° NE 03:54:15 39° NE visible
14 Sep 4.6 05:31:20 10° NNW 05:34:16 16° WNW 05:34:23 16° WNW visible
15 Sep 5.4 03:14:17 10° NE 03:16:15 18° ENE 03:16:15 18° ENE visible
15 Sep 3.8 04:52:36 10° N 04:56:23 33° NW 04:56:23 33° NW visible
16 Sep 3.7 04:14:48 10° NNE 04:18:23 47° N 04:18:23 47° N visible
17 Sep 4.8 03:37:39 10° NNE 03:40:23 28° NE 03:40:23 28° NE visible
17 Sep 4.4 05:17:19 10° NNW 05:20:31 21° WNW 05:20:31 21° WNW visible
